Time,TemperatureF,DewpointF,PressureIn,WindDirection,WindDirectionDegrees,WindSpeedMPH,WindSpeedGustMPH,Humidity,HourlyPrecipIn,Conditions,Clouds,dailyrainin,SoftwareType,DateUTC
2013-01-07 00:00:00,29.0,24.0,-100.00,North,349,1.0,-999.0,83,0.00,,,0.00,,2013-01-07 06:00:00,
2013-01-07 00:32:00,29.0,24.0,-100.00,North,349,1.0,-999.0,83,0.00,,,0.00,,2013-01-07 06:32:00,
2013-01-07 00:42:00,29.0,24.0,-100.00,North,349,1.0,-999.0,83,0.00,,,0.00,,2013-01-07 06:42:00,
2013-01-07 00:52:00,29.0,24.0,-100.00,North,349,1.0,-999.0,83,0.00,,,0.00,,2013-01-07 06:52:00,
2013-01-07 01:00:00,28.0,24.0,-100.00,NNW,347,1.0,-999.0,85,0.00,,,0.00,,2013-01-07 07:00:00,
2013-01-07 01:33:00,28.0,24.0,-100.00,NNW,347,1.0,-999.0,85,0.00,,,0.00,,2013-01-07 07:33:00,
2013-01-07 01:43:00,28.0,24.0,-100.00,NNW,347,1.0,-999.0,85,0.00,,,0.00,,2013-01-07 07:43:00,
2013-01-07 01:53:00,28.0,24.0,-100.00,NNW,347,1.0,-999.0,85,0.00,,,0.00,,2013-01-07 07:53:00,
2013-01-07 02:00:00,28.0,24.0,-100.00,North,4,2.0,-999.0,87,0.00,,,0.00,,2013-01-07 08:00:00,
2013-01-07 02:32:00,28.0,24.0,-100.00,North,4,2.0,-999.0,87,0.00,,,0.00,,2013-01-07 08:32:00,
2013-01-07 02:43:00,28.0,24.0,-100.00,North,4,2.0,-999.0,87,0.00,,,0.00,,2013-01-07 08:43:00,
2013-01-07 02:53:00,28.0,24.0,-100.00,North,4,2.0,-999.0,87,0.00,,,0.00,,2013-01-07 08:53:00,
2013-01-07 03:00:00,26.0,24.0,-100.00,North,6,0.0,-999.0,91,0.00,,,0.00,,2013-01-07 09:00:00,
2013-01-07 03:32:00,26.0,24.0,-100.00,North,6,0.0,-999.0,91,0.00,,,0.00,,2013-01-07 09:32:00,
2013-01-07 03:42:00,26.0,24.0,-100.00,North,6,0.0,-999.0,91,0.00,,,0.00,,2013-01-07 09:42:00,
2013-01-07 03:52:00,26.0,24.0,-100.00,North,6,0.0,-999.0,91,0.00,,,0.00,,2013-01-07 09:52:00,
2013-01-07 04:00:00,27.0,25.0,-100.00,NNW,336,3.0,-999.0,92,0.00,,,0.00,,2013-01-07 10:00:00,
2013-01-07 04:32:00,27.0,25.0,-100.00,NNW,336,3.0,-999.0,92,0.00,,,0.00,,2013-01-07 10:32:00,
2013-01-07 04:43:00,27.0,25.0,-100.00,NNW,336,3.0,-999.0,92,0.00,,,0.00,,2013-01-07 10:43:00,
2013-01-07 04:52:00,27.0,25.0,-100.00,NNW,336,3.0,-999.0,92,0.00,,,0.00,,2013-01-07 10:52:00,
2013-01-07 05:00:00,26.0,24.0,-100.00,NNE,14,5.0,-999.0,92,0.00,,,0.00,,2013-01-07 11:00:00,
2013-01-07 05:33:00,26.0,24.0,-100.00,NNE,14,5.0,-999.0,92,0.00,,,0.00,,2013-01-07 11:33:00,
2013-01-07 05:43:00,26.0,24.0,-100.00,NNE,14,5.0,-999.0,92,0.00,,,0.00,,2013-01-07 11:43:00,
2013-01-07 05:53:00,26.0,24.0,-100.00,NNE,14,5.0,-999.0,92,0.00,,,0.00,,2013-01-07 11:53:00,
2013-01-07 06:00:00,25.0,23.0,-100.00,North,353,0.0,-999.0,92,0.00,,,0.00,,2013-01-07 12:00:00,
2013-01-07 06:33:00,25.0,23.0,-100.00,North,353,0.0,-999.0,92,0.00,,,0.00,,2013-01-07 12:33:00,
2013-01-07 06:43:00,25.0,23.0,-100.00,North,353,0.0,-999.0,92,0.00,,,0.00,,2013-01-07 12:43:00,
2013-01-07 06:53:00,25.0,23.0,-100.00,North,353,0.0,-999.0,92,0.00,,,0.00,,2013-01-07 12:53:00,
2013-01-07 07:00:00,25.0,24.0,-100.00,North,8,2.0,-999.0,94,0.00,,,0.00,,2013-01-07 13:00:00,
2013-01-07 07:33:00,25.0,24.0,-100.00,North,8,2.0,-999.0,94,0.00,,,0.00,,2013-01-07 13:33:00,
2013-01-07 07:43:00,25.0,24.0,-100.00,North,8,2.0,-999.0,94,0.00,,,0.00,,2013-01-07 13:43:00,
2013-01-07 07:53:00,25.0,24.0,-100.00,North,8,2.0,-999.0,94,0.00,,,0.00,,2013-01-07 13:53:00,
2013-01-07 08:00:00,25.0,24.0,-100.00,North,5,1.0,-999.0,94,0.00,,,0.00,,2013-01-07 14:00:00,
2013-01-07 08:33:00,25.0,24.0,-100.00,North,5,1.0,-999.0,94,0.00,,,0.00,,2013-01-07 14:33:00,
2013-01-07 08:43:00,25.0,24.0,-100.00,North,5,1.0,-999.0,94,0.00,,,0.00,,2013-01-07 14:43:00,
2013-01-07 08:53:00,25.0,24.0,-100.00,North,5,1.0,-999.0,94,0.00,,,0.00,,2013-01-07 14:53:00,
2013-01-07 09:00:00,32.0,30.0,-100.00,SW,219,0.0,-999.0,92,0.00,,,0.00,,2013-01-07 15:00:00,
2013-01-07 09:33:00,32.0,30.0,-100.00,SW,219,0.0,-999.0,92,0.00,,,0.00,,2013-01-07 15:33:00,
2013-01-07 09:43:00,32.0,30.0,-100.00,SW,219,0.0,-999.0,92,0.00,,,0.00,,2013-01-07 15:43:00,
2013-01-07 09:53:00,32.0,30.0,-100.00,SW,219,0.0,-999.0,92,0.00,,,0.00,,2013-01-07 15:53:00,
2013-01-07 10:00:00,40.0,33.0,-100.00,SSE,162,7.0,-999.0,77,0.00,,,0.00,,2013-01-07 16:00:00,
2013-01-07 10:33:00,40.0,33.0,-100.00,SSE,162,7.0,-999.0,77,0.00,,,0.00,,2013-01-07 16:33:00,
2013-01-07 10:43:00,40.0,33.0,-100.00,SSE,162,7.0,-999.0,77,0.00,,,0.00,,2013-01-07 16:43:00,
2013-01-07 10:53:00,40.0,33.0,-100.00,SSE,162,7.0,-999.0,77,0.00,,,0.00,,2013-01-07 16:53:00,
2013-01-07 11:00:00,45.0,32.0,-100.00,SSE,153,6.0,-999.0,60,0.00,,,0.00,,2013-01-07 17:00:00,
2013-01-07 11:33:00,45.0,32.0,-100.00,SSE,153,6.0,-999.0,60,0.00,,,0.00,,2013-01-07 17:33:00,
2013-01-07 11:43:00,45.0,32.0,-100.00,SSE,153,6.0,-999.0,60,0.00,,,0.00,,2013-01-07 17:43:00,
2013-01-07 11:53:00,45.0,32.0,-100.00,SSE,153,6.0,-999.0,60,0.00,,,0.00,,2013-01-07 17:53:00,
2013-01-07 12:00:00,47.0,29.0,-100.00,SSE,165,7.0,-999.0,51,0.00,,,0.00,,2013-01-07 18:00:00,
2013-01-07 12:33:00,47.0,29.0,-100.00,SSE,165,7.0,-999.0,51,0.00,,,0.00,,2013-01-07 18:33:00,
2013-01-07 12:43:00,47.0,29.0,-100.00,SSE,165,7.0,-999.0,51,0.00,,,0.00,,2013-01-07 18:43:00,
2013-01-07 12:53:00,47.0,29.0,-100.00,SSE,165,7.0,-999.0,51,0.00,,,0.00,,2013-01-07 18:53:00,
2013-01-07 13:00:00,47.0,28.0,-100.00,SE,146,5.0,-999.0,47,0.00,,,0.00,,2013-01-07 19:00:00,
2013-01-07 13:33:00,47.0,28.0,-100.00,SE,146,5.0,-999.0,47,0.00,,,0.00,,2013-01-07 19:33:00,
2013-01-07 13:43:00,47.0,28.0,-100.00,SE,146,5.0,-999.0,47,0.00,,,0.00,,2013-01-07 19:43:00,
2013-01-07 13:53:00,47.0,28.0,-100.00,SE,146,5.0,-999.0,47,0.00,,,0.00,,2013-01-07 19:53:00,
2013-01-07 14:00:00,50.0,29.0,-100.00,SSE,157,4.0,-999.0,44,0.00,,,0.00,,2013-01-07 20:00:00,
2013-01-07 14:33:00,50.0,29.0,-100.00,SSE,157,4.0,-999.0,44,0.00,,,0.00,,2013-01-07 20:33:00,
2013-01-07 14:43:00,50.0,29.0,-100.00,SSE,157,4.0,-999.0,44,0.00,,,0.00,,2013-01-07 20:43:00,
2013-01-07 14:53:00,50.0,29.0,-100.00,SSE,157,4.0,-999.0,44,0.00,,,0.00,,2013-01-07 20:53:00,
2013-01-07 15:00:00,51.0,28.0,-100.00,SSE,166,7.0,-999.0,41,0.00,,,0.00,,2013-01-07 21:00:00,
2013-01-07 15:33:00,51.0,28.0,-100.00,SSE,166,7.0,-999.0,41,0.00,,,0.00,,2013-01-07 21:33:00,
2013-01-07 15:43:00,51.0,28.0,-100.00,SSE,166,7.0,-999.0,41,0.00,,,0.00,,2013-01-07 21:43:00,
2013-01-07 15:53:00,51.0,28.0,-100.00,SSE,166,7.0,-999.0,41,0.00,,,0.00,,2013-01-07 21:53:00,
2013-01-07 16:00:00,50.0,27.0,-100.00,SSE,151,5.0,-999.0,41,0.00,,,0.00,,2013-01-07 22:00:00,
2013-01-07 16:33:00,50.0,27.0,-100.00,SSE,151,5.0,-999.0,41,0.00,,,0.00,,2013-01-07 22:33:00,
2013-01-07 16:43:00,50.0,27.0,-100.00,SSE,151,5.0,-999.0,41,0.00,,,0.00,,2013-01-07 22:43:00,
2013-01-07 16:53:00,50.0,27.0,-100.00,SSE,151,5.0,-999.0,41,0.00,,,0.00,,2013-01-07 22:53:00,
2013-01-07 17:00:00,48.0,27.0,-100.00,East,79,0.0,-999.0,44,0.00,,,0.00,,2013-01-07 23:00:00,
2013-01-07 17:33:00,48.0,27.0,-100.00,East,79,0.0,-999.0,44,0.00,,,0.00,,2013-01-07 23:33:00,
2013-01-07 17:43:00,48.0,27.0,-100.00,East,79,0.0,-999.0,44,0.00,,,0.00,,2013-01-07 23:43:00,
2013-01-07 17:53:00,48.0,27.0,-100.00,East,79,0.0,-999.0,44,0.00,,,0.00,,2013-01-07 23:53:00,
2013-01-07 19:00:00,41.0,29.0,-100.00,North,355,0.0,-999.0,63,0.00,,,0.00,,2013-01-08 01:00:00,
2013-01-07 19:33:00,41.0,29.0,-100.00,North,355,0.0,-999.0,63,0.00,,,0.00,,2013-01-08 01:33:00,
2013-01-07 19:42:00,41.0,29.0,-100.00,North,355,0.0,-999.0,63,0.00,,,0.00,,2013-01-08 01:42:00,
2013-01-07 19:52:00,41.0,29.0,-100.00,North,355,0.0,-999.0,63,0.00,,,0.00,,2013-01-08 01:52:00,
2013-01-07 20:00:00,40.0,27.0,-100.00,SE,130,0.0,-999.0,59,0.00,,,0.00,,2013-01-08 02:00:00,
2013-01-07 20:33:00,40.0,27.0,-100.00,SE,130,0.0,-999.0,59,0.00,,,0.00,,2013-01-08 02:33:00,
2013-01-07 20:43:00,40.0,27.0,-100.00,SE,130,0.0,-999.0,59,0.00,,,0.00,,2013-01-08 02:43:00,
2013-01-07 20:53:00,40.0,27.0,-100.00,SE,130,0.0,-999.0,59,0.00,,,0.00,,2013-01-08 02:53:00,
2013-01-07 21:00:00,36.0,29.0,-100.00,NNE,32,0.0,-999.0,76,0.00,,,0.00,,2013-01-08 03:00:00,
2013-01-07 21:32:00,36.0,29.0,-100.00,NNE,32,0.0,-999.0,76,0.00,,,0.00,,2013-01-08 03:32:00,
2013-01-07 21:43:00,36.0,29.0,-100.00,NNE,32,0.0,-999.0,76,0.00,,,0.00,,2013-01-08 03:43:00,
2013-01-07 21:53:00,36.0,29.0,-100.00,NNE,32,0.0,-999.0,76,0.00,,,0.00,,2013-01-08 03:53:00,
2013-01-07 22:00:00,34.0,29.0,-100.00,North,10,0.0,-999.0,83,0.00,,,0.00,,2013-01-08 04:00:00,
2013-01-07 22:32:00,34.0,29.0,-100.00,North,10,0.0,-999.0,83,0.00,,,0.00,,2013-01-08 04:32:00,
2013-01-07 22:43:00,34.0,29.0,-100.00,North,10,0.0,-999.0,83,0.00,,,0.00,,2013-01-08 04:43:00,
2013-01-07 22:52:00,34.0,29.0,-100.00,North,10,0.0,-999.0,83,0.00,,,0.00,,2013-01-08 04:52:00,
2013-01-07 23:00:00,34.0,29.0,-100.00,ENE,74,0.0,-999.0,81,0.00,,,0.00,,2013-01-08 05:00:00,
2013-01-07 23:33:00,34.0,29.0,-100.00,ENE,74,0.0,-999.0,81,0.00,,,0.00,,2013-01-08 05:33:00,
2013-01-07 23:43:00,34.0,29.0,-100.00,ENE,74,0.0,-999.0,81,0.00,,,0.00,,2013-01-08 05:43:00,
2013-01-07 23:53:00,34.0,29.0,-100.00,ENE,74,0.0,-999.0,81,0.00,,,0.00,,2013-01-08 05:53:00,